Location: Foots Cray
(51.4000°N, 0.1167°E)
Time: 03:38:57
(UTC+00:00)

Cosmos 1464 Rocket - Pass Details

Date: 15 May 2026
Orbit: 952 x 1000 km, 82.9° (Epoch: 8 June)

Event Time Altitude Azimuth Distance (km) Brightness Sun altitude
Exits shadow 21:18:41 11° 169° (S) 2,579 5.7 -11.6°
Maximum altitude 21:24:23 58° 93° (E) 1,118 4.1 -12.2°
Drops below altitude 10° 21:30:26 10° 16° (NNE) 2,720 6.9 -12.7°
Sets 21:33:00 0° 13° (NNE) 3,678 7.7 -12.9°
